Location: ????????
(55.3975°N, 38.2844°E)
Time: 05:53:07
(UTC+00:00)

BlueWalker 3 - Pass Details

Date: 20 August 2024
Orbit: 476 x 487 km, 53.2° (Epoch: 08 September)

Event Time Altitude Azimuth Distance (km) Brightness Sun altitude
Exits shadow 22:57:19 50° 137° (SE) 635 2.2 -20.1°
Drops below altitude 10° 23:00:22 10° 106° (ESE) 1,685 4.7 -20.0°
Sets 23:02:33 0° 103° (ESE) 2,567 5.7 -19.8°
